sat.trackr.live / text

‹ back to catalog

STARLINK-5480

NORAD 55664 · 2023-021AN

PAYLOAD ACTIVE UNKNOWN

§ Identity

Operator
Country
US
Launch date
2023-02-17
Launch site
AFWTR
Launch vehicle
Mass (kg)
RCS (m²)

Purposes: comms

External: N2YO · Heavens-Above · Gunter

§ Orbital elements

Epoch: 2026-09-20T20:05:39.307200Z

Period
96.11 min
Inclination
70.0007°
Eccentricity
0.0003125
Mean motion
14.98336216 rev/d
Perigee alt
569.9 km
Apogee alt
574.2 km
Semi-major
6,950.2 km
B*
5.6091e-5
RAAN
32.5043°
Arg perigee
273.7853°
Mean anomaly
86.2949°
Rev number
19,851

§ Raw data

STARLINK-54801 55664U 23021AN  26263.83726050  .00000576  00000+0  56091-4 0  99962 55664  70.0007  32.5043 0003125 273.7853  86.2949 14.98336216198510

JSON: /api/v1/satellites/55664 · /tle

For live sub-satellite position, see the globe view (requires WebGL).

§ Visibility from observer

Set your observer location to see the next 7 days of passes ≥ 10°. The values pass through the URL so the page stays shareable.

No JS? Fill the form by hand. The geolocation button needs JavaScript.